Find Local Weather

World > North America > United States > New York

Middletown, New York Regional Weather

Lat: 41.45N, Lon: 74.42W
Wx Zone: NYZ067
Feedback
Expires:201809201900;;941223
ASUS41 KOKX 201806
RWROKX

Regional Weather Roundup
National Weather Service New York NY
200 PM EDT THU SEP 20 2018

Note: "FAIR" indicates few or no clouds below 12,000 feet with no
significant weather and/or obstructions to visibility.


NYZ052-065-067-201900-
Hudson Valley
  
CITY           SKY/WX    TMP DP  RH WIND       PRES   REMARKS
White Plains   PTSUNNY   68  55  63 CALM      30.24S                  
Larchmont Harb   N/A     66 N/A N/A NE3         N/A                   
Croton On Huds   N/A     66 N/A N/A W2          N/A                   
Somers           N/A     66  57  72 SW2         N/A                   
Brewster         N/A     66  55  68 N1          N/A                   
Newburgh       CLOUDY    68  61  77 VRB6      30.25F                  
Montgomery     CLOUDY    69  58  67 CALM      30.23F                  
Otisville        N/A    N/A N/A N/A NE1         N/A                   
Warwick          N/A     66  61  82 S2          N/A                   
Suffern          N/A     68  59  73 NE1         N/A                   
Poughkeepsie   CLOUDY    69  57  65 CALM      30.22F                  
Albany         PTSUNNY   71  56  58 S10       30.21F                  
$$
 

SKY/WX - Weather  TMP - Temperature  DP - Dew Point  RH - Relative Humidity
WIND - Wind Direction/Speed PRES - Barometric Pressure